YAMAL 202

Last updated on Aug. 10, 2020, 5:33 a.m. UTC

1 28089U 03053A   20222.77896068 -.00000082  00000-0  00000-0 0  9998
2 28089   0.9747  94.9644 0006654  29.1431 278.5191  1.00272478 61251
UTC
Height (km)
Latitude
Longitude
Inclination
Orbital Period
UTC large
Height (km)
Speed (km/s)
/
Latitude / Longitude
Inclination (degrees)
Orbital Period (minutes)
Azimuth
Elevation
Range (km)
Doppler Factor
iOS Compass Heading
iOS Angle

Next 30 passes for location: Hong Kong

Rise time Rise Azimuth (degrees) Set time Set Azimuth (degrees) Duration Max altitude (degrees)

No matching passes for this satellites